Home > Weather > Schwyz > Past weeks

Flag for Switzerland Weather for the Past 2 Weeks in Schwyz, Schwyz, Switzerland

Now
49 °F

Cool.


Feels Like: 49 °F
Forecast: 43 / 60 °F
Wind: 1 mph from East

Location: Altdorf

Current Time: May 2, 2016 at 10:27:03 PM

Latest Report: May 2, 2016 at 9:00 PM


Visibility: N/A

Pressure: 30.17 "Hg (28.35 "Hg at 515m altitude)

Humidity: 88%

Dew Point: 45 °F

Location of SchwyzLocation

Historic Weather in Schwyz — Graph

°F

Schwyz Temperature Yesterday

Maximum temperature yesterday: 46 °F (at 1:00 PM)
Minimum temperature yesterday: 42 °F (at 7:00 AM)
Average temperature yesterday: 44 °F

High & Low Weather Summary for the Past Weeks

 TemperatureHumidityPressure
High66 °F (Apr 21, 5:00 PM)94% (Apr 23, 4:00 AM)30.36 "Hg (Apr 23, 4:00 AM)
Low30 °F (Apr 28, 2:00 AM)33% (Apr 30, 3:00 PM)29.65 "Hg (Apr 26, 2:00 PM)
Average47 °F73%30.04 "Hg
* Reported Apr 17 9:00 PM — May 2 9:00 PM, Schwyz, Weather by CustomWeather, © 2016

Note: Actual official high and low records may vary slightly from our data, if they occured in-between our weather recording intervals... More about our weather records

Advertising

Schwyz Weather History for the Previous 24 Hours

Scroll right to see more
 ConditionsComfort  
Time TempWeatherWind HumidityBarometerVisibility
9:00 PM
Mon, May 2
49 °FCool.1 mph88%30.17 "HgN/A
8:00 PM49 °FOvercast.3 mph86%30.16 "Hg9 mi
7:00 PM50 °FCool.7 mph84%30.16 "HgN/A
6:00 PM49 °FCool.3 mph83%30.18 "HgN/A
5:00 PM49 °FOvercast.No wind80%30.19 "Hg9 mi
4:00 PM49 °FCool.No wind76%30.19 "HgN/A
3:00 PM49 °FCool.3 mph81%30.20 "HgN/A
2:00 PM48 °FOvercast.1 mph80%30.21 "Hg9 mi
1:00 PM47 °FCool.No wind81%30.22 "HgN/A
12:00 PM46 °FCool.1 mph82%30.23 "HgN/A
11:00 AM45 °FLow clouds.1 mph83%30.23 "Hg11 mi
9:00 AM42 °FQuite cool.2 mph89%30.25 "HgN/A
8:00 AM42 °FLight rain. Low clouds.2 mph93%30.25 "Hg2 mi
6:00 AM41 °FQuite cool.2 mph93%30.24 "HgN/A
3:00 AM41 °FQuite cool.No wind92%30.24 "HgN/A
2:00 AM42 °FRain. Overcast.No wind92%30.25 "Hg9 mi
1:00 AM41 °FQuite cool.1 mph92%30.25 "HgN/A
12:00 AM42 °FQuite cool.2 mph92%30.25 "HgN/A
10:00 PM
Sun, May 1
42 °FQuite cool.No wind89%30.24 "HgN/A
Weather by CustomWeather, © 2016

See weather overviewHow to use our weather pages